Vertical_Velocity
-1 -0 0 4 3 -0 -3 6 -2 1 0 2 3 3 4 6 0 -1 2 -2 3 1 17 -1 5 9 8 3 5 2 1 -1 2 -1 3 1 2 5 -1 -3 -1 3 -0 1
-1 -1 0 -0 -0 -0 -0 -1 -2 -1 -1 5 -1 -0 -5 1 2 -1 3 1 1 3 4 -2 3 3 4 6 4 -1 4 2 1 4 0 -1 -3 -0 -0 1 2 1 3 6
-4 0 -2 -7 2 1 0 -0 3 0 0 -0 -3 -1 1 1 -0 -0 3 1 -1 1 -3 2 3 -9 -2 13 6 6 -9 7 0 -1 2 3 0 0 0 2 2 -1 -1 1
-2 -4 -10 -14 -0 1 2 0 -0 -1 -1 2 1 -0 4 5 4 1 -3 -0 -1 1 2 2 -7 -0 9 7 17 -5 -8 6 -1 -11 13 6 -5 -2 -4 -0 -2 0 1 1
-4 -1 -9 -7 -3 -2 -0 -4 1 1 -1 -2 1 1 -1 -1 0 2 3 -2 -2 -1 -0 3 -2 -1 -9 13 1 15 -5 -1 -3 7 -6 3 -3 -2 1 -0 -0 -0 1 1
-3 -3 -3 -10 -2 0 -0 -5 0 2 1 1 -4 -3 1 -1 2 1 -4 -3 3 6 1 -3 -1 -2 6 3 6 7 -1 -1 -1 -0 0 5 -2 -1 -1 2 1 1 -1 2
-0 -1 -10 -4 -1 1 -12 -17 1 1 1 -1 1 7 4 4 2 4 4 4 0 -0 -3 2 3 0 7 -0 3 1 5 -1 -1 3 -0 6 -0 1 0 -0 3 1 2 4
-2 -2 -9 -1 -1 -10 -9 -1 -1 -1 -0 0 2 -0 -1 1 1 1 2 2 2 3 -0 -5 3 4 -3 -0 1 -1 -3 -4 1 4 3 -0 -2 1 1 -1 2 2 2 3
-12 -12 -1 -0 -3 -1 -2 -0 -1 -0 0 1 2 2 1 1 1 1 1 -1 1 2 1 -2 -1 -2 -1 -3 -2 3 4 0 -1 -3 -1 -1 -2 -2 -1 2 2 1 -0 0
-4 -6 -4 -1 0 -1 -1 -2 -1 -0 -0 -0 -1 -1 1 -0 -1 -0 2 2 1 -2 -4 -1 -2 -3 7 -3 -0 1 1 1 -1 2 -4 -1 1 2 -1 1 0 0 -1 -1
-5 -5 -1 -2 -3 1 1 1 -2 -1 -1 -1 -1 0 -1 -1 1 -1 -2 -5 -4 -2 -1 2 3 1 7 2 1 1 2 2 1 1 1 -2 -0 3 -0 1 -1 -4 -3 -1
-9 -3 -4 -3 -2 -3 -2 -1 2 -1 -1 1 -0 1 -0 -0 -1 0 2 3 3 5 4 0 -3 0 1 -1 4 4 2 3 -2 2 1 -2 -3 -1 2 6 -0 1 3 -1
-0 0 0 -1 -1 -0 -2 -1 -0 0 -1 -0 1 -1 0 1 1 1 -1 -2 0 1 3 4 4 5 1 2 6 2 5 3 1 -0 -1 -2 -7 -7 -4 0 2 1 -1 -4
1 2 -4 0 -1 0 -1 -0 -0 -0 -0 -1 -1 0 -0 -2 1 1 0 1 2 2 4 3 2 1 1 1 1 2 -2 -2 3 1 1 1 1 3 0 -2 -8 -8 -3 -0
-1 0 1 -0 -0 1 0 -1 -3 -2 -1 0 0 -0 -1 1 1 1 -0 -2 -2 -0 2 3 3 3 1 0 0 0 0 -2 -1 -2 1 4 4 -0 4 -0 -4 2 -1 2
-0 -0 2 -2 2 -0 -1 -0 -1 0 -0 1 -1 1 1 -1 -0 -0 1 0 1 2 0 -2 -1 2 0 1 0 -1 -1 -1 0 -1 0 -4 -3 -1 -2 -1 -1 3 0 2
-1 -2 -0 -3 0 3 -1 3 1 0 2 -4 -2 0 -2 1 -0 2 2 -1 -1 -1 -0 -1 2 1 -1 1 -0 0 0 1 3 2 -2 -2 -0 -2 2 0 -2 4 -1 4
2 2 1 0 0 -1 -1 -0 1 1 -0 5 3 -3 1 -1 -1 -1 -2 -2 -1 -1 1 2 -1 2 1 -0 0 2 2 3 2 -1 4 0 -3 2 1 5 2 1 -1 4
-1 0 0 0 2 -1 0 1 0 -1 -1 -1 0 1 -2 -1 -0 -1 -2 -3 -4 -7 7 -0 -1 -2 0 1 -0 0 0 1 2 -1 -1 3 2 -0 0 -0 -1 -0 -1 0
-0 -1 0 0 1 1 0 4 0 1 1 1 1 -0 0 2 -1 -1 -1 -3 -1 1 -2 -2 -4 -1 1 2 1 -2 0 -0 1 4 1 1 2 -1 -0 1 0 -0 1 -0
-2 -1 -2 -3 -1 1 1 1 1 1 0 0 0 1 -0 -0 -1 -1 -1 -3 9 -1 -3 -1 -2 -2 -2 -0 1 -1 0 1 1 0 1 -1 -0 -1 -2 1 0 -1 -0 -1
-1 -1 -2 -2 -2 -1 -1 0 0 1 1 0 0 0 0 2 -1 -1 -0 -2 2 -2 -1 0 0 0 -0 1 -0 1 -1 1 1 1 0 1 1 -1 -4 -2 -1 -1 0 1
-2 -3 -2 -3 -2 -2 0 1 -0 -0 1 1 1 1 -1 -0 0 -1 -1 0 -0 -0 -2 -0 0 1 0 0 -1 1 0 -0 -0 0 0 -1 1 2 1 -3 2 3 -0 -1
-1 -1 -1 -3 -1 -0 -0 2 -0 0 -0 0 1 0 -1 -1 2 1 -1 -1 -2 -0 0 -2 -1 0 2 2 -1 -1 -0 0 -0 0 0 3 -0 2 0 -0 -0 -1 -1 1
-0 0 -1 -1 -1 0 -1 0 -1 1 1 0 0 0 -1 -0 -1 2 -1 -0 -1 -1 1 1 -0 0 -2 -2 -1 1 -1 2 1 2 1 2 -0 -1 1 1 1 -1 1 1
-0 -1 -1 1 -1 -0 -0 0 -2 1 0 -0 1 -0 1 0 -0 -0 -0 -1 -0 -0 -0 -0 -1 -1 -1 -0 0 1 -1 0 2 3 1 2 2 1 2 2 2 2 -1 2
-0 -1 -0 -1 0 0 -0 -0 -1 0 2 0 -0 0 1 1 1 -0 -0 0 -0 0 1 -0 -1 -1 -1 -0 -0 1 0 -0 1 1 1 2 3 3 2 2 2 2 1 1
Height
1487 1482 1480 1481 1479 1475 1473 1472 1471 1471 1468 1472 1464 1457 1451 1445 1444 1439 1435 1433 1434 1434 1431 1430 1436 1439 1443 1448 1453 1459 1464 1471 1477 1482 1488 1493 1498 1502 1508 1512 1517 1521 1526 1530
1495 1483 1478 1481 1482 1480 1480 1481 1478 1475 1473 1472 1466 1459 1455 1453 1448 1445 1442 1440 1440 1440 1433 1437 1436 1439 1443 1447 1451 1456 1462 1468 1474 1478 1483 1488 1493 1498 1503 1507 1512 1517 1521 1525
1500 1489 1485 1489 1492 1489 1487 1489 1487 1481 1480 1475 1469 1466 1464 1459 1453 1451 1448 1443 1443 1442 1443 1444 1442 1444 1447 1451 1449 1455 1460 1466 1472 1473 1480 1483 1488 1493 1498 1502 1507 1511 1517 1521
1509 1493 1510 1493 1490 1488 1487 1488 1489 1486 1481 1477 1474 1469 1465 1461 1456 1455 1451 1449 1448 1448 1446 1445 1446 1452 1445 1457 1446 1451 1461 1463 1468 1473 1476 1478 1483 1489 1494 1499 1504 1509 1514 1519
1518 1534 1504 1497 1493 1494 1491 1484 1486 1485 1481 1474 1467 1466 1466 1464 1461 1457 1455 1452 1452 1451 1450 1449 1448 1449 1456 1451 1451 1451 1454 1462 1468 1470 1474 1477 1481 1487 1492 1497 1501 1507 1513 1518
1533 1532 1519 1498 1492 1491 1492 1488 1483 1481 1480 1477 1471 1469 1471 1468 1464 1463 1461 1460 1457 1456 1453 1452 1452 1456 1455 1454 1454 1452 1457 1462 1467 1469 1474 1476 1480 1486 1491 1497 1502 1507 1512 1518
1532 1544 1512 1493 1489 1489 1494 1493 1482 1482 1479 1476 1474 1476 1473 1469 1468 1466 1463 1461 1459 1458 1458 1456 1456 1456 1455 1455 1456 1456 1458 1462 1468 1471 1475 1478 1480 1486 1491 1496 1502 1507 1512 1517
1540 1538 1510 1487 1488 1492 1486 1481 1481 1480 1479 1478 1477 1475 1472 1470 1468 1466 1463 1461 1461 1460 1457 1459 1459 1458 1458 1458 1458 1459 1461 1466 1471 1473 1475 1478 1483 1488 1491 1497 1502 1507 1512 1517
1513 1499 1485 1484 1483 1483 1482 1481 1479 1478 1477 1475 1474 1473 1472 1472 1470 1468 1465 1464 1463 1460 1460 1461 1460 1461 1463 1461 1462 1464 1466 1468 1472 1474 1477 1481 1484 1488 1493 1499 1503 1507 1513 1518
1503 1486 1482 1481 1480 1479 1480 1479 1478 1477 1475 1474 1472 1471 1470 1470 1469 1469 1468 1467 1466 1464 1466 1467 1466 1466 1466 1465 1468 1470 1471 1473 1475 1476 1479 1483 1487 1491 1494 1499 1502 1508 1513 1518
1496 1481 1479 1477 1476 1476 1476 1476 1476 1476 1475 1474 1473 1472 1471 1470 1469 1469 1468 1468 1467 1468 1469 1467 1466 1468 1468 1469 1470 1473 1475 1476 1477 1478 1480 1484 1490 1494 1496 1501 1506 1510 1514 1520
1484 1473 1474 1474 1474 1474 1473 1473 1474 1474 1473 1472 1471 1471 1470 1470 1469 1469 1470 1470 1470 1470 1470 1470 1470 1470 1469 1469 1472 1474 1474 1475 1478 1480 1483 1486 1492 1497 1500 1506 1509 1513 1517 1521
1472 1472 1472 1472 1471 1470 1470 1471 1471 1471 1471 1470 1469 1468 1468 1469 1469 1469 1469 1469 1468 1467 1469 1470 1469 1470 1470 1473 1473 1473 1475 1477 1478 1481 1485 1488 1492 1496 1499 1503 1507 1511 1515 1520
1468 1470 1470 1467 1468 1467 1467 1468 1468 1468 1468 1467 1467 1466 1465 1465 1465 1465 1466 1466 1466 1467 1468 1468 1468 1468 1469 1468 1470 1470 1472 1475 1478 1482 1485 1488 1491 1493 1497 1499 1504 1509 1514 1517
1463 1463 1464 1465 1465 1465 1465 1465 1465 1465 1465 1465 1464 1464 1463 1463 1463 1463 1462 1463 1463 1463 1463 1462 1462 1463 1464 1465 1467 1469 1471 1473 1476 1480 1483 1486 1488 1491 1494 1497 1503 1508 1511 1513
1459 1459 1460 1459 1460 1461 1461 1461 1460 1461 1461 1461 1460 1460 1460 1459 1459 1458 1458 1456 1456 1456 1456 1457 1458 1459 1460 1461 1463 1466 1469 1471 1474 1477 1479 1481 1485 1488 1491 1495 1499 1502 1504 1505
1454 1455 1456 1455 1456 1457 1457 1457 1456 1456 1456 1456 1456 1456 1455 1455 1454 1454 1453 1451 1451 1451 1451 1452 1454 1454 1455 1457 1459 1462 1465 1468 1470 1472 1474 1477 1481 1484 1487 1489 1493 1494 1496 1499
1449 1449 1452 1453 1453 1453 1453 1453 1453 1452 1452 1452 1450 1450 1450 1450 1449 1448 1448 1446 1445 1445 1446 1447 1448 1448 1449 1452 1454 1457 1460 1462 1463 1465 1469 1471 1474 1477 1480 1483 1483 1485 1489 1492
1446 1447 1449 1449 1449 1448 1448 1448 1448 1447 1447 1447 1446 1445 1445 1444 1444 1443 1442 1441 1440 1440 1441 1440 1440 1441 1444 1446 1447 1449 1452 1454 1456 1458 1461 1465 1467 1469 1471 1473 1476 1479 1482 1484
1445 1446 1446 1445 1444 1443 1442 1442 1441 1441 1441 1440 1440 1439 1438 1438 1437 1437 1435 1434 1435 1435 1433 1434 1434 1435 1436 1437 1439 1440 1442 1445 1448 1450 1453 1456 1457 1459 1462 1465 1468 1471 1473 1475
1442 1441 1441 1439 1438 1437 1435 1434 1434 1434 1434 1434 1433 1432 1431 1431 1430 1429 1429 1427 1430 1428 1427 1426 1427 1428 1429 1429 1430 1431 1433 1436 1438 1440 1443 1446 1449 1451 1453 1457 1459 1462 1465 1467
1438 1437 1436 1434 1433 1431 1429 1428 1429 1429 1428 1427 1426 1425 1424 1424 1424 1423 1423 1422 1422 1421 1421 1420 1420 1420 1421 1422 1423 1424 1426 1427 1430 1432 1434 1437 1440 1442 1444 1447 1450 1452 1455 1458
1435 1434 1432 1431 1430 1428 1426 1425 1424 1423 1422 1421 1420 1419 1418 1418 1418 1417 1418 1417 1415 1415 1414 1414 1413 1413 1414 1415 1416 1417 1418 1419 1421 1423 1426 1428 1431 1433 1435 1437 1440 1443 1445 1448
1431 1430 1429 1427 1426 1424 1422 1421 1419 1418 1417 1416 1415 1414 1413 1413 1413 1412 1412 1411 1411 1410 1410 1409 1409 1409 1411 1410 1410 1410 1410 1411 1413 1415 1417 1420 1421 1424 1426 1428 1430 1433 1436 1439
1427 1426 1425 1423 1421 1419 1417 1416 1414 1413 1412 1411 1410 1410 1409 1409 1409 1409 1408 1407 1406 1406 1406 1405 1405 1404 1404 1404 1404 1405 1405 1406 1407 1408 1410 1411 1413 1415 1417 1420 1423 1425 1427 1429
1423 1422 1420 1417 1416 1413 1412 1410 1409 1409 1408 1407 1406 1405 1405 1404 1404 1404 1403 1403 1402 1401 1401 1400 1400 1399 1399 1398 1399 1400 1401 1401 1402 1403 1404 1405 1407 1408 1410 1412 1415 1417 1418 1421
1418 1416 1413 1411 1410 1408 1407 1406 1405 1404 1404 1403 1402 1402 1401 1401 1400 1400 1399 1398 1398 1397 1397 1397 1397 1396 1395 1395 1395 1395 1397 1397 1398 1399 1400 1401 1402 1403 1405 1406 1408 1410 1411 1413